STARLINK-31675 (59548 NORAD) Tracking and Keplerian Element Data

This shows tracking and keplerian element data for the satellite.

Feedback or suggestion? Click here.




ElementValue
Catalog59548
NameSTARLINK-31675
Epoch Orbit898
Epoch Day159.98552441
Epoch Year2024
RAAN27.9305
Inclination43.0034
Eccentricity0.000169
Argument of Perigee288.4429
Mean Anonmoly71.6244
Mean Motion15.40718461
Decay Rate6.398E-05
L11 59548U 24074Q 24159.98552441 .00006398 00000+0 16021-3 0 9995
L22 59548 43.0034 27.9305 0001690 288.4429 71.6244 15.40718461 8982



Live tracking and technical data element details for STARLINK-31675 (NORAD 59548). STARLINK-31675 can be tracked NOW for your location showing map with azimuth and elevation plus other details from your city location.







IsCatalogInMostPopularTable: catalog: 59548, numindb: 13
Update: records affected: 1



GetName: 59548 STARLINK-31675

Hit Count: updated at: Fri, 14 Jun 2024 17:41:03 GMT